2019 BE5

Initial reported observation by Palomar Mountain--ZTF on 2019-01-31.
(Discoverer will be defined when the object is numbered. See this note on how discoverers are determined.)

Orbit

Orbit type: Aten
Near-Earth Object

Note: WebGL enabled browser required.

epoch2020-05-31.0
epoch JD2459000.5
perihelion date2020-04-24.56840
perihelion JD2458964.06840
argument of perihelion (°)9.75573
ascending node (°)309.02706
inclination (°)1.43626
eccentricity0.6591256
perihelion distance (AU)0.2079715
Tisserand w.r.t. Jupiter9.0
ΔV w.r.t. Earth (km/sec)16.0
semimajor axis (AU)0.6101117
mean anomaly (°)75.34735
mean daily motion (°/day)2.06818680
aphelion distance (AU)1.012
period (years)0.48
P-vector [x]0.75217574
P-vector [y]-0.60626320
P-vector [z]-0.25821809
Q-vector [x]0.65867482
Q-vector [y]0.68014078
Q-vector [z]0.32180119
absolute magnitude25.1
phase slope0.15
uncertainty3
referenceMPO 536492
observations used83
oppositions2
arc length (days)363
first opposition used2019
last opposition used2020
residual rms (arc-secs)0.55
perturbers coarse indicatorM-v
perturbers precise indicator003Eh
first observation date used2019-01-31.0
last observation date used2020-01-29.0
computer nameRudenko
JD of orbit computation2458526.990120
perihelion JD uncertainty (days)5.3502E-03
argument of perihelion uncertainty (°)8.9031E-04
ascending node uncertainty (°)1.9629E-04
inclination uncertainty (°)4.1968E-04
eccentricity uncertainty 8.4074E-05
perihelion distance uncertainty (AU)6.0768E-05
Minimum Orbit Intersection Distances (in AU)
for orbit epoch: 2459000.5, reference: E2020-C04
Mercury0.01246
Venus0.00898
Earth1.0e-05
Mars0.64654
Jupiter4.29033
Saturn8.17222
Uranus17.3557
Neptune29.3052

Observations

83 total observations over interval: 2019 01 31.324536 – 2020 01 29.636777
These data are available for download (format description).

Date (UT) J2000 RA J2000 Dec Magn Location Ref
2019 01 31.324536 08 19 01.92 +14 58 32.9 14.94 R I41 – Palomar Mountain--ZTF MPS 967526
2019 01 31.324883 08 18 57.93 +14 58 46.0 14.94 R I41 – Palomar Mountain--ZTF MPS 967526
2019 01 31.342090 08 15 43.98 +15 09 16.9 14.99 R I41 – Palomar Mountain--ZTF MPS 967526
2019 01 31.342436 08 15 39.99 +15 09 29.7 14.99 R I41 – Palomar Mountain--ZTF MPS 967526
2019 01 31.369242 08 10 43.11 +15 25 10.0 15.03 R I41 – Palomar Mountain--ZTF MPS 967526
2019 01 31.369589 08 10 39.26 +15 25 22.1 15.03 R I41 – Palomar Mountain--ZTF MPS 967526
2019 01 31.369698 08 10 38.09 +15 25 24.6 15.01 R I41 – Palomar Mountain--ZTF MPS 967526
2019 01 31.370045 08 10 34.37 +15 25 36.2 15.01 R I41 – Palomar Mountain--ZTF MPS 967526
2019 01 31.957200 06 49 11.75 +18 44 41.1 16.2 G G34 – Oberfrauendorf MPS 967526
2019 01 31.957983 06 49 06.64 +18 44 48.3 17.0 G G34 – Oberfrauendorf MPS 967526
2019 01 31.961163 06 48 46.15 +18 45 20.5 15.7 G G34 – Oberfrauendorf MPS 967526
2019 01 31.962873 06 48 35.21 +18 45 37.3 16.4 G G34 – Oberfrauendorf MPS 967526
2019 02 01.07619 06 38 10.18 +19 05 40.0 16.3 G H06 – iTelescope Observatory, Mayhill MPS 967526
2019 02 01.07823 06 37 58.25 +19 05 58.0 16.9 G H06 – iTelescope Observatory, Mayhill MPS 967526
2019 02 01.08138 06 37 40.08 +19 06 25.7 16.7 G H06 – iTelescope Observatory, Mayhill MPS 967526
2019 02 01.156351 06 30 38.44 +19 16 01.5 17.3 G H01 – Magdalena Ridge Observatory, Socorro MPS 967526
2019 02 01.163273 06 30 00.70 +19 16 49.3 16.9 G H01 – Magdalena Ridge Observatory, Socorro MPS 967526
2019 02 01.174407 06 29 00.49 +19 18 03.9 16.1 G H01 – Magdalena Ridge Observatory, Socorro MPS 967526
2019 02 01.180100 06 28 29.91 +19 18 40.9 16.3 G H01 – Magdalena Ridge Observatory, Socorro MPS 967526
2019 02 01.26019 06 21 34.03 +19 26 37.4   711 – McDonald Observatory, Fort Davis MPS 967526
2019 02 01.26118 06 21 29.18 +19 26 41.8   711 – McDonald Observatory, Fort Davis MPS 967526
2019 02 01.26638 06 21 03.36 +19 27 05.6   711 – McDonald Observatory, Fort Davis MPS 967526
2019 02 01.26710 06 20 59.87 +19 27 08.8   711 – McDonald Observatory, Fort Davis MPS 967526
2019 02 01.38421 06 12 06.13 +19 32 56.2 17.0 i 718 – Tooele MPS 967526
2019 02 01.38466 06 12 04.13 +19 32 56.9 17.2 i 718 – Tooele MPS 967526
2019 02 01.38511 06 12 02.24 +19 32 58.7 16.8 i 718 – Tooele MPS 967526
2019 02 01.38556 06 12 00.31 +19 32 59.5 17.6 i 718 – Tooele MPS 967526
2019 02 01.38600 06 11 58.36 +19 33 00.6 16.8 i 718 – Tooele MPS 967526
2019 02 01.41267 06 10 58.85 +19 36 30.8 17.3 R P93 – Space Tracking and Communications Center, JAXA MPS 967526
2019 02 01.41452 06 10 50.88 +19 36 38.9 17.3 R P93 – Space Tracking and Communications Center, JAXA MPS 967526
2019 02 01.41545 06 10 46.87 +19 36 42.8 17.3 R P93 – Space Tracking and Communications Center, JAXA MPS 967526
2019 02 01.438279 06 09 06.82 +19 38 09.8 17.0 G 381 – Tokyo-Kiso MPS 967526
2019 02 01.458966 06 07 39.69 +19 39 25.5 17.1 G 381 – Tokyo-Kiso MPS 967526
2019 02 01.478986 06 06 16.66 +19 40 31.1 17.1 G 381 – Tokyo-Kiso MPS 967526
2019 02 01.499772 06 04 51.86 +19 41 34.2 17.2 G 381 – Tokyo-Kiso MPS 967526
2019 02 01.581017 05 59 35.11 +19 44 42.1 17.3 G 381 – Tokyo-Kiso MPS 967526
2019 02 01.86100 05 44 52.44 +19 48 41.5 18.2 R A91 – Hankasalmi Observatory MPS 967526
2019 02 01.86171 05 44 50.40 +19 48 41.7 17.8 R A91 – Hankasalmi Observatory MPS 967526
2019 02 01.86229 05 44 48.66 +19 48 42.6 18.3 R A91 – Hankasalmi Observatory MPS 967527
2019 02 02.112718 05 34 17.16 +19 54 29.2 17.9 G H01 – Magdalena Ridge Observatory, Socorro MPS 967527
2019 02 02.11393 05 34 15.92 +19 54 38.7 17.9 G I52 – Steward Observatory, Mt. Lemmon Station MPS 967527
2019 02 02.11405 05 34 15.59 +19 54 38.6   I52 – Steward Observatory, Mt. Lemmon Station MPS 967527
2019 02 02.11486 05 34 13.52 +19 54 39.4   I52 – Steward Observatory, Mt. Lemmon Station MPS 967527
2019 02 02.126091 05 33 43.69 +19 54 34.8 18.1 G H01 – Magdalena Ridge Observatory, Socorro MPS 967527
2019 02 02.142018 05 33 04.19 +19 54 40.0 19.1 G H01 – Magdalena Ridge Observatory, Socorro MPS 967527
2019 02 02.146802 05 32 44.05 +19 53 57.8 18.3 V H21 – Astronomical Research Observatory, Westfield MPS 967527
2019 02 02.148437 05 32 40.06 +19 53 57.6 18.1 V H21 – Astronomical Research Observatory, Westfield MPS 967527
2019 02 02.150129 05 32 35.95 +19 53 57.6 18.1 V H21 – Astronomical Research Observatory, Westfield MPS 967527
2019 02 02.160788 05 32 18.18 +19 54 43.8 17.6 G H01 – Magdalena Ridge Observatory, Socorro MPS 967527
2019 02 02.173290 05 31 47.88 +19 54 45.0 18.6 G H01 – Magdalena Ridge Observatory, Socorro MPS 967527
2019 02 02.17587 05 31 36.94 +19 54 04.8 18.3 G H36 – Sandlot Observatory, Scranton MPS 967527
2019 02 02.17859 05 31 30.44 +19 54 04.6 18.2 G H36 – Sandlot Observatory, Scranton MPS 967527
2019 02 02.18137 05 31 23.79 +19 54 04.3 18.3 G H36 – Sandlot Observatory, Scranton MPS 967527
2019 02 02.776035 05 13 27.79 +19 50 11.9 18.4 G J95 – Great Shefford MPS 967527
2019 02 02.780486 05 13 20.65 +19 50 10.6 18.9 G J95 – Great Shefford MPS 967527
2019 02 02.784893 05 13 13.63 +19 50 09.2 18.9 G J95 – Great Shefford MPS 967527
2019 02 02.789036 05 13 07.04 +19 50 08.1 18.8 G J95 – Great Shefford MPS 967527
2019 02 02.880185 05 10 45.16 +19 49 29.5 17.4 G J69 – North Observatory, Clanfield MPS 967527
2019 02 02.886395 05 10 35.92 +19 49 26.2 17.5 G J69 – North Observatory, Clanfield MPS 967527
2019 02 02.892605 05 10 26.57 +19 49 22.2 17.7 G J69 – North Observatory, Clanfield MPS 967527
2019 02 04.09077 04 49 57.44 +19 38 40.8   711 – McDonald Observatory, Fort Davis MPS 967527
2019 02 04.09350 04 49 55.11 +19 38 39.3   711 – McDonald Observatory, Fort Davis MPS 967527
2019 02 04.09646 04 49 52.54 +19 38 37.5   711 – McDonald Observatory, Fort Davis MPS 967527
2019 02 04.77878 04 42 26.21 +19 30 44.9 21.4 V 033 – Karl Schwarzschild Observatory, Tautenburg MPS 967527
2019 02 04.78057 04 42 25.07 +19 30 43.8 21.4 V 033 – Karl Schwarzschild Observatory, Tautenburg MPS 967527
2019 02 04.78236 04 42 23.93 +19 30 42.8 21.1 V 033 – Karl Schwarzschild Observatory, Tautenburg MPS 967527
2019 02 04.88449 04 41 25.68 +19 31 10.1 19.9 G J04 – ESA Optical Ground Station, Tenerife MPS 967527
2019 02 04.88694 04 41 24.14 +19 31 08.8 20.1 G J04 – ESA Optical Ground Station, Tenerife MPS 967527
2019 02 05.224439 04 38 37.023 +19 28 44.36 20.80 G T12 – University of Hawaii 88-inch telescope, Maunak MPS 969998
2019 02 05.230827 04 38 33.439 +19 28 41.47 20.41 G T12 – University of Hawaii 88-inch telescope, Maunak MPS 969998
2019 02 05.231571 04 38 33.026 +19 28 41.14 20.38 G T12 – University of Hawaii 88-inch telescope, Maunak MPS 969998
2019 02 07.846038 04 24 42.340 +19 12 01.37 21.0 G J04 – ESA Optical Ground Station, Tenerife MPS 967527
2019 02 07.855604 04 24 39.803 +19 11 58.78 20.9 G J04 – ESA Optical Ground Station, Tenerife MPS 967527
2019 02 07.865173 04 24 37.269 +19 11 55.64 20.8 G J04 – ESA Optical Ground Station, Tenerife MPS 967527
2019 02 08.13733 04 23 42.01 +19 10 36.9 22.1 R 291 – LPL/Spacewatch II MPS 967527
2019 02 08.14183 04 23 40.90 +19 10 35.6 21.7 R 291 – LPL/Spacewatch II MPS 967527
2019 02 08.14633 04 23 39.69 +19 10 32.8 21.2 R 291 – LPL/Spacewatch II MPS 967527
2019 02 09.247946 04 20 33.937 +19 06 57.11 22.07 G T12 – University of Hawaii 88-inch telescope, Maunak MPS 1124989
2020 01 27.294146 14 07 29.061 -14 03 49.41 24.3 G 309 – Cerro Paranal MPS 1124989
2020 01 27.298088 14 07 29.396 -14 03 53.36 24.2 G 309 – Cerro Paranal MPS 1124989
2020 01 27.302047 14 07 29.733 -14 03 57.26 24.3 G 309 – Cerro Paranal MPS 1124989
2020 01 29.625108 14 11 31.743 -14 43 52.52 24.07 G T14 – Canada-France-Hawaii Telescope, Maunakea MPS 1124989
2020 01 29.636777 14 11 32.845 -14 44 05.56 24.44 G T12 – University of Hawaii 88-inch telescope, Maunak MPS 1124989